When you browse on this site, cookies collect data to enhance your experience and personalize the content and advertising you see.
Visit our Privacy Policy to learn more. By continuing to use the site, you agree to this use of cookies and data.
  • In Portugal
  • List of Countries
  • For 7 days
  • Water Temperature
  • Satellite Maps
  • Weather Map
  • Weather Widgets
  • user-avatar
    Login

    Hourly Weather Mierkinie

    Today, 25 May, Saturday

    Time Temperature Precipitation Wind Pressure Humidity
    00:00 +9°C° 0 mm 2 mps 734 mmHg 81%
    01:00 +10°C° 0 mm 1 mps 734 mmHg 80%
    02:00 +9°C° 0 mm 1 mps 734 mmHg 79%
    03:00 +9°C° 0 mm 1 mps 734 mmHg 78%
    04:00 +10°C° 0 mm 1 mps 734 mmHg 78%
    05:00 +9°C° 0 mm 2 mps 734 mmHg 78%
    06:00 +12°C° 0 mm 2 mps 734 mmHg 76%
    07:00 +13°C° 0 mm 3 mps 734 mmHg 75%
    08:00 +14°C° 0 mm 4 mps 734 mmHg 74%
    09:00 +15°C° 0 mm 4 mps 734 mmHg 71%
    10:00 +16°C° 0 mm 5 mps 734 mmHg 68%
    11:00 +17°C° 0 mm 5 mps 734 mmHg 65%
    12:00 +17°C° 0.3 mm 5 mps 734 mmHg 67%
    13:00 +17°C° 0.3 mm 6 mps 734 mmHg 69%
    14:00 +17°C° 0.3 mm 6 mps 734 mmHg 71%
    15:00 +16°C° 0 mm 6 mps 734 mmHg 71%
    16:00 +15°C° 0 mm 6 mps 733 mmHg 71%
    17:00 +14°C° 0 mm 6 mps 733 mmHg 71%
    18:00 +13°C° 0 mm 5 mps 733 mmHg 75%
    19:00 +12°C° 0 mm 4 mps 734 mmHg 79%
    20:00 +11°C° 0 mm 3 mps 734 mmHg 83%
    21:00 +9°C° 0 mm 3 mps 734 mmHg 87%
    22:00 +8°C° 0 mm 3 mps 734 mmHg 91%
    23:00 +7°C° 0 mm 2 mps 734 mmHg 95%

    Tomorrow, 26 May, Sunday

    Time Temperature Precipitation Wind Pressure Humidity
    00:00 +6°C° 0 mm 2 mps 734 mmHg 95%
    01:00 +6°C° 0 mm 2 mps 734 mmHg 96%
    02:00 +6°C° 0 mm 2 mps 734 mmHg 97%
    03:00 +6°C° 0 mm 2 mps 734 mmHg 96%
    04:00 +5°C° 0 mm 3 mps 734 mmHg 96%
    05:00 +5°C° 0 mm 3 mps 734 mmHg 96%
    06:00 +7°C° 0 mm 3 mps 734 mmHg 91%
    07:00 +8°C° 0 mm 4 mps 734 mmHg 87%
    08:00 +10°C° 0 mm 5 mps 734 mmHg 82%
    09:00 +12°C° 0 mm 5 mps 734 mmHg 77%
    10:00 +13°C° 0 mm 5 mps 734 mmHg 73%
    11:00 +14°C° 0 mm 6 mps 734 mmHg 69%
    12:00 +14°C° 0.1 mm 6 mps 734 mmHg 69%
    13:00 +14°C° 0.1 mm 6 mps 734 mmHg 70%
    14:00 +14°C° 0.1 mm 6 mps 733 mmHg 71%
    15:00 +14°C° 0.4 mm 6 mps 733 mmHg 74%
    16:00 +14°C° 0.4 mm 5 mps 733 mmHg 78%
    17:00 +13°C° 0.4 mm 5 mps 733 mmHg 82%
    18:00 +13°C° 0.1 mm 4 mps 733 mmHg 84%
    19:00 +12°C° 0.1 mm 4 mps 733 mmHg 87%
    20:00 +12°C° 0.1 mm 3 mps 733 mmHg 89%
    21:00 +11°C° 0 mm 3 mps 733 mmHg 90%
    22:00 +11°C° 0 mm 3 mps 733 mmHg 90%
    23:00 +11°C° 0 mm 3 mps 733 mmHg 91%

    Day after tomorrow, 27 May, Monday

    Time Temperature Precipitation Wind Pressure Humidity
    00:00 +11°C° 0.1 mm 3 mps 733 mmHg 91%
    01:00 +11°C° 0.1 mm 4 mps 733 mmHg 92%
    02:00 +11°C° 0.1 mm 4 mps 733 mmHg 93%
    03:00 +11°C° 0 mm 4 mps 732 mmHg 93%
    04:00 +11°C° 0 mm 3 mps 732 mmHg 94%
    05:00 +11°C° 0 mm 3 mps 732 mmHg 95%
    06:00 +12°C° 0 mm 4 mps 732 mmHg 93%
    07:00 +12°C° 0 mm 4 mps 732 mmHg 91%
    08:00 +13°C° 0 mm 5 mps 732 mmHg 90%
    09:00 +14°C° 0.1 mm 6 mps 732 mmHg 86%
    10:00 +15°C° 0.1 mm 6 mps 732 mmHg 83%
    11:00 +16°C° 0.1 mm 7 mps 732 mmHg 79%
    12:00 +17°C° 0.2 mm 7 mps 732 mmHg 77%
    13:00 +18°C° 0.2 mm 7 mps 732 mmHg 75%
    14:00 +20°C° 0.2 mm 7 mps 732 mmHg 72%
    15:00 +19°C° 0.5 mm 6 mps 732 mmHg 75%
    16:00 +19°C° 0.5 mm 5 mps 732 mmHg 77%
    17:00 +19°C° 0.5 mm 4 mps 732 mmHg 80%
    18:00 +18°C° 0.6 mm 3 mps 732 mmHg 84%
    19:00 +17°C° 0.6 mm 2 mps 732 mmHg 88%
    20:00 +16°C° 0.6 mm 2 mps 732 mmHg 91%
    21:00 +16°C° 0.4 mm 2 mps 732 mmHg 93%
    22:00 +15°C° 0.4 mm 2 mps 732 mmHg 94%
    23:00 +13°C° 0.4 mm 3 mps 732 mmHg 95%

    28 May, Tuesday

    Time Temperature Precipitation Wind Pressure Humidity
    00:00 +13°C° 0.1 mm 3 mps 732 mmHg 96%
    01:00 +13°C° 0.1 mm 3 mps 732 mmHg 96%
    02:00 +12°C° 0.1 mm 3 mps 733 mmHg 97%
    03:00 +12°C° 0 mm 2 mps 733 mmHg 96%
    04:00 +12°C° 0 mm 2 mps 733 mmHg 95%
    05:00 +11°C° 0 mm 1 mps 733 mmHg 94%
    06:00 +12°C° 0 mm 1 mps 733 mmHg 90%
    07:00 +13°C° 0 mm 1 mps 733 mmHg 86%
    08:00 +14°C° 0 mm 1 mps 734 mmHg 82%
    09:00 +14°C° 0.1 mm 1 mps 734 mmHg 80%
    10:00 +15°C° 0.1 mm 1 mps 734 mmHg 78%
    11:00 +16°C° 0.1 mm 1 mps 734 mmHg 76%
    12:00 +15°C° 0.6 mm 2 mps 733 mmHg 80%
    13:00 +15°C° 0.6 mm 2 mps 733 mmHg 84%
    14:00 +15°C° 0.6 mm 2 mps 733 mmHg 88%
    15:00 +14°C° 0.1 mm 2 mps 733 mmHg 89%
    16:00 +14°C° 0.1 mm 2 mps 733 mmHg 90%
    17:00 +13°C° 0.1 mm 3 mps 733 mmHg 91%
    18:00 +13°C° 0 mm 3 mps 733 mmHg 91%
    19:00 +12°C° 0 mm 3 mps 733 mmHg 91%
    20:00 +13°C° 0 mm 2 mps 733 mmHg 91%
    21:00 +12°C° 0.7 mm 3 mps 733 mmHg 92%
    22:00 +12°C° 0.7 mm 3 mps 733 mmHg 94%
    23:00 +11°C° 0.7 mm 4 mps 733 mmHg 95%

    29 May, Wednesday

    Time Temperature Precipitation Wind Pressure Humidity
    00:00 +11°C° 0.7 mm 4 mps 732 mmHg 95%
    01:00 +11°C° 0.7 mm 4 mps 732 mmHg 96%
    02:00 +11°C° 0.7 mm 4 mps 732 mmHg 96%
    03:00 +10°C° 1.3 mm 5 mps 732 mmHg 96%
    04:00 +9°C° 1.3 mm 5 mps 732 mmHg 96%
    05:00 +9°C° 1.3 mm 5 mps 732 mmHg 96%
    06:00 +9°C° 0.3 mm 5 mps 733 mmHg 95%
    07:00 +8°C° 0.3 mm 5 mps 733 mmHg 94%
    08:00 +8°C° 0.3 mm 5 mps 734 mmHg 94%
    09:00 +8°C° 0.1 mm 5 mps 734 mmHg 93%
    10:00 +8°C° 0.1 mm 5 mps 735 mmHg 91%
    11:00 +8°C° 0.1 mm 5 mps 735 mmHg 90%
    12:00 +10°C° 0 mm 5 mps 736 mmHg 85%
    13:00 +12°C° 0 mm 5 mps 737 mmHg 79%
    14:00 +13°C° 0 mm 5 mps 737 mmHg 73%
    15:00 +13°C° 0 mm 5 mps 738 mmHg 70%
    16:00 +13°C° 0 mm 6 mps 738 mmHg 68%
    17:00 +11°C° 0 mm 6 mps 739 mmHg 66%
    18:00 +10°C° 0 mm 6 mps 739 mmHg 69%
    19:00 +8°C° 0 mm 5 mps 740 mmHg 72%
    20:00 +7°C° 0 mm 4 mps 740 mmHg 75%
    21:00 +6°C° 0 mm 4 mps 741 mmHg 77%
    22:00 +5°C° 0 mm 3 mps 741 mmHg 80%
    23:00 +3°C° 0 mm 3 mps 742 mmHg 82%

    30 May, Thursday

    Time Temperature Precipitation Wind Pressure Humidity
    00:00 +3°C° 0 mm 3 mps 742 mmHg 85%
    01:00 +2°C° 0 mm 3 mps 742 mmHg 88%
    02:00 +2°C° 0 mm 3 mps 743 mmHg 91%
    03:00 +2°C° 0 mm 3 mps 743 mmHg 92%
    04:00 +2°C° 0 mm 3 mps 743 mmHg 93%
    05:00 +2°C° 0 mm 3 mps 743 mmHg 94%
    06:00 +6°C° 0 mm 2 mps 744 mmHg 88%
    07:00 +8°C° 0 mm 2 mps 744 mmHg 82%
    08:00 +12°C° 0 mm 2 mps 744 mmHg 76%
    09:00 +13°C° 0 mm 2 mps 744 mmHg 68%
    10:00 +14°C° 0 mm 2 mps 744 mmHg 61%
    11:00 +15°C° 0 mm 2 mps 744 mmHg 53%
    12:00 +16°C° 0 mm 2 mps 744 mmHg 51%
    13:00 +17°C° 0 mm 2 mps 744 mmHg 49%
    14:00 +17°C° 0 mm 2 mps 743 mmHg 47%
    15:00 +17°C° 0 mm 2 mps 743 mmHg 49%
    16:00 +17°C° 0 mm 2 mps 743 mmHg 50%
    17:00 +17°C° 0 mm 2 mps 742 mmHg 51%
    18:00 +16°C° 0 mm 2 mps 742 mmHg 58%
    19:00 +15°C° 0 mm 2 mps 742 mmHg 65%
    20:00 +13°C° 0 mm 2 mps 741 mmHg 72%
    21:00 +12°C° 0 mm 2 mps 741 mmHg 73%
    22:00 +10°C° 0 mm 3 mps 741 mmHg 73%
    23:00 +9°C° 0 mm 3 mps 741 mmHg 74%
    Show more